Terug naar catalogus

STARLINK-36939

ActiefCommunicatieSSO
NORAD 68034·PAYLOAD·🇺🇸 United States

Gelanceerd Mar 1, 2026 vanaf Vandenberg Space Force Base

Loading…

Volgende Passages (komende 24 uur)

TLE

VersSource: CelesTrak SupGP

Epoch: Sep 14, 2026, 21:06 UTC

1 68034C 26040V   26257.87965278 -.00028522  00000+0 -88539-3 0  2570
2 68034  97.2853 205.3375 0001815  86.1503 115.2914 15.33452533    18

Volg STARLINK-36939 in realtime met AllMySat

Download on the App Store